Hourly Data Report for March 01, 2019

MAYO A
YUKON TERRITORY
Current Station Operator: NAVCAN

63°36'59.000" N
135°52'06.000" W
503.80 m
2100701
71965
YMA

Download Data

Hourly Data (March 2019)
Hourly Data Report for March 1, 2019
TIME
LST
Temp Definition
°C
Dew Point Definition
°C
Rel Hum Definition
%
Precip. Amount Definition
mm

Wind Dir Definition
10's deg

Wind Spd Definition
km/h
Visibility Definition
km
Stn Press Definition
kPa
Hmdx Definition


Wind Chill Definition


Weather Definition


00:00 -25.3 -28.0 78   36 1 32.2 96.74   -26 LegendNANA
01:00 -26.2 -29.0 78   36 1 32.2 96.77   -27 Clear
02:00 -25.9 -28.6 79     0 32.2 96.78     LegendNANA
03:00 -26.6 -29.4 77   30 4 32.2 96.79   -31 LegendNANA
04:00 -27.6 -30.7 76   36 1 32.2 96.79   -29 Clear
05:00 -27.2 -30.2 76   36 2 32.2 96.79   -29 LegendNANA
06:00 -27.9 -30.9 76   36 1 32.2 96.80   -29 LegendNANA
07:00 -28.6 -31.6 76   0 1 32.2 96.82   -30 Clear
08:00 -28.9 -32.0 75   36 2 32.2 96.84   -31 LegendNANA
09:00 -29.0 -32.1 75   36 2 32.2 96.85   -31 LegendNANA
10:00 -26.7 -30.0 74   36 2 32.2 96.87   -29 Clear
11:00 -21.2 -24.0 79   31 4 32.2 96.89   -25 LegendNANA
12:00 -17.5 -21.3 73   36 1 32.2 96.87   -18 LegendNANA
13:00 -14.0 -18.9 67   36 3 32.2 96.85   -16 Clear
14:00 -11.2 -16.8 64   36 1 32.2 96.82   -12 LegendNANA
15:00 -8.7 -15.3 59   10 3 32.2 96.77   -10 LegendNANA
16:00 -7.3 -14.4 57   13 5 32.2 96.75   -10 Clear
17:00 -6.2 -13.0 59   10 5 32.2 96.75   -9 LegendNANA
18:00 -6.7 -13.0 61   5 11 32.2 96.76   -12 LegendNANA
19:00 -7.7 -13.4 64   36 16 32.2 96.78   -14 Clear
20:00 -9.1 -14.6 65   4 13 32.2 96.82   -15 LegendNANA
21:00 -10.0 -14.9 68   1 21 32.2 96.85   -18 LegendNANA
22:00 -10.3 -15.2 68   1 16 32.2 96.88   -17 Clear
23:00 -11.1 -15.9 68   36 18 32.2 96.91   -19 LegendNANA

Notes on Data Quality.

Legend

  • E = Estimated
  • M = Missing
  • NA = Not Available*
  • [empty] = Indicates an unobserved value
Date modified: